Location: Barcelona
(41.3830°N, 2.1830°E)
Time: 15:44:32
(UTC+02:00)

ISS - Pass Details

Date: 26 March 2020
Orbit: 416 x 423 km, 51.6° (Epoch: 02 April)

Event Time Altitude Azimuth Distance (km) Brightness Sun altitude
Rises 21:27:28 0° 305° (NW) 2,360 1.4 -25.3°
Reaches altitude 10° 21:30:14 10° 330° (NNW) 1,497 -0.2 -25.8°
Enters shadow 21:31:42 15° 355° (N) 1,245 -1.0 -26.0°
